Time,TemperatureF,DewpointF,PressureIn,WindDirection,WindDirectionDegrees,WindSpeedMPH,WindSpeedGustMPH,Humidity,HourlyPrecipIn,Conditions,Clouds,dailyrainin,SoftwareType,DateUTC
2014-08-31 00:01:00,58.8,55.6,29.92,East,90,0.0,0.9,89,1.69,,,0.00,WUHU21623XXSP,2014-08-31 05:01:00,
2014-08-31 00:06:00,58.8,55.6,29.92,SE,135,0.0,0.0,89,1.69,,,0.00,WUHU21623XXSP,2014-08-31 05:06:00,
2014-08-31 00:12:00,58.6,55.4,29.92,SSE,165,0.3,1.6,89,1.69,,,0.00,WUHU21623XXSP,2014-08-31 05:12:00,
2014-08-31 00:17:00,58.3,55.1,29.91,SSW,202,0.0,1.6,89,1.69,,,0.00,WUHU21623XXSP,2014-08-31 05:17:00,
2014-08-31 00:22:00,58.3,55.1,29.92,South,180,0.2,1.6,89,1.69,,,0.00,WUHU21623XXSP,2014-08-31 05:22:00,
2014-08-31 00:27:00,58.3,55.1,29.92,South,180,0.2,1.6,89,1.69,,,0.00,WUHU21623XXSP,2014-08-31 05:27:00,
2014-08-31 00:32:00,58.1,54.9,29.91,SSW,202,0.0,1.6,89,0.00,,,0.00,WUHU21623XXSP,2014-08-31 05:32:00,
2014-08-31 00:37:00,57.9,54.7,29.91,SW,225,0.0,0.0,89,0.00,,,0.00,WUHU21623XXSP,2014-08-31 05:37:00,
2014-08-31 00:42:00,57.7,54.5,29.91,SW,225,0.1,1.1,89,0.00,,,0.00,WUHU21623XXSP,2014-08-31 05:42:00,
2014-08-31 00:47:00,57.7,54.5,29.91,SSW,202,0.0,1.1,89,0.00,,,0.00,WUHU21623XXSP,2014-08-31 05:47:00,
2014-08-31 00:52:00,57.7,54.5,29.91,WNW,292,0.0,0.0,89,0.00,,,0.00,WUHU21623XXSP,2014-08-31 05:52:00,
2014-08-31 00:57:00,57.6,54.4,29.91,West,270,0.0,0.0,89,0.00,,,0.00,WUHU21623XXSP,2014-08-31 05:57:00,
2014-08-31 01:02:00,57.4,54.5,29.91,West,270,0.0,0.0,90,0.00,,,0.00,WUHU21623XXSP,2014-08-31 06:02:00,
2014-08-31 01:07:00,57.0,54.1,29.91,West,270,0.0,0.0,90,0.00,,,0.00,WUHU21623XXSP,2014-08-31 06:07:00,
2014-08-31 01:12:00,56.8,54.0,29.91,West,270,0.0,0.0,90,0.00,,,0.00,WUHU21623XXSP,2014-08-31 06:12:00,
2014-08-31 01:17:00,56.5,53.6,29.91,West,270,0.0,0.0,90,0.00,,,0.00,WUHU21623XXSP,2014-08-31 06:17:00,
2014-08-31 01:22:00,56.3,53.4,29.91,West,270,0.0,0.0,90,0.00,,,0.00,WUHU21623XXSP,2014-08-31 06:22:00,
2014-08-31 01:27:00,56.1,53.2,29.91,West,270,0.0,0.0,90,0.00,,,0.00,WUHU21623XXSP,2014-08-31 06:27:00,
2014-08-31 01:32:00,56.1,53.2,29.91,West,270,0.0,0.0,90,0.00,,,0.00,WUHU21623XXSP,2014-08-31 06:32:00,
2014-08-31 01:37:00,56.1,53.2,29.91,West,270,0.0,0.0,90,0.00,,,0.00,WUHU21623XXSP,2014-08-31 06:37:00,
2014-08-31 01:42:00,55.9,53.1,29.92,West,270,0.0,0.0,90,0.00,,,0.00,WUHU21623XXSP,2014-08-31 06:42:00,
2014-08-31 01:47:00,55.9,53.1,29.92,WSW,247,0.0,0.0,90,0.00,,,0.00,WUHU21623XXSP,2014-08-31 06:47:00,
2014-08-31 01:52:00,55.9,53.1,29.92,WSW,247,0.0,0.0,90,0.00,,,0.00,WUHU21623XXSP,2014-08-31 06:52:00,
2014-08-31 01:57:00,56.1,53.2,29.92,WSW,247,0.0,0.0,90,0.00,,,0.00,WUHU21623XXSP,2014-08-31 06:57:00,
2014-08-31 02:02:00,56.3,53.4,29.92,WSW,247,0.0,0.0,90,0.00,,,0.00,WUHU21623XXSP,2014-08-31 07:02:00,
2014-08-31 02:07:00,56.5,53.9,29.93,WSW,247,0.0,0.0,91,0.00,,,0.00,WUHU21623XXSP,2014-08-31 07:07:00,
2014-08-31 02:12:00,56.7,54.1,29.93,WSW,247,0.0,0.0,91,0.00,,,0.00,WUHU21623XXSP,2014-08-31 07:12:00,
2014-08-31 02:17:00,56.7,54.1,29.94,WSW,247,0.0,0.0,91,0.00,,,0.00,WUHU21623XXSP,2014-08-31 07:17:00,
2014-08-31 02:22:00,56.8,54.2,29.94,WSW,247,0.0,0.0,91,0.00,,,0.00,WUHU21623XXSP,2014-08-31 07:22:00,
2014-08-31 02:27:00,56.8,54.2,29.94,WSW,247,0.0,0.0,91,0.00,,,0.00,WUHU21623XXSP,2014-08-31 07:27:00,
2014-08-31 02:32:00,56.8,54.2,29.94,WSW,247,0.0,0.0,91,0.00,,,0.00,WUHU21623XXSP,2014-08-31 07:32:00,
2014-08-31 02:37:00,56.8,54.2,29.94,SW,225,0.0,0.0,91,0.00,,,0.00,WUHU21623XXSP,2014-08-31 07:37:00,
2014-08-31 02:42:00,57.0,54.4,29.94,SW,225,0.0,0.0,91,0.00,,,0.00,WUHU21623XXSP,2014-08-31 07:42:00,
2014-08-31 02:47:00,57.0,54.1,29.94,SW,225,0.0,0.0,90,0.00,,,0.00,WUHU21623XXSP,2014-08-31 07:47:00,
2014-08-31 02:52:00,57.0,54.1,29.94,SW,225,0.0,0.0,90,0.00,,,0.00,WUHU21623XXSP,2014-08-31 07:52:00,
2014-08-31 02:57:00,57.2,54.3,29.94,SW,225,0.0,0.0,90,0.00,,,0.00,WUHU21623XXSP,2014-08-31 07:57:00,
2014-08-31 03:02:00,57.4,54.5,29.94,SE,135,0.0,0.0,90,0.00,,,0.00,WUHU21623XXSP,2014-08-31 08:02:00,
2014-08-31 03:07:00,57.4,54.5,29.94,SE,135,0.0,0.0,90,0.00,,,0.00,WUHU21623XXSP,2014-08-31 08:07:00,
2014-08-31 03:12:00,57.4,54.5,29.93,SE,135,0.0,0.0,90,0.00,,,0.00,WUHU21623XXSP,2014-08-31 08:12:00,
2014-08-31 03:17:00,57.2,54.3,29.93,WSW,247,0.0,0.0,90,0.00,,,0.00,WUHU21623XXSP,2014-08-31 08:17:00,
2014-08-31 03:22:00,57.2,54.3,29.93,WSW,247,0.0,0.0,90,0.00,,,0.00,WUHU21623XXSP,2014-08-31 08:22:00,
2014-08-31 03:27:00,57.4,54.5,29.93,South,180,0.0,0.0,90,0.00,,,0.00,WUHU21623XXSP,2014-08-31 08:27:00,
2014-08-31 03:32:00,57.4,54.5,29.93,South,180,0.0,0.0,90,0.00,,,0.00,WUHU21623XXSP,2014-08-31 08:32:00,
2014-08-31 03:37:00,57.2,54.3,29.92,South,180,0.0,0.0,90,0.00,,,0.00,WUHU21623XXSP,2014-08-31 08:37:00,
2014-08-31 03:42:00,57.2,54.3,29.92,SSW,202,0.0,0.0,90,0.00,,,0.00,WUHU21623XXSP,2014-08-31 08:42:00,
2014-08-31 03:47:00,57.0,54.1,29.92,SSW,202,0.0,0.0,90,0.00,,,0.00,WUHU21623XXSP,2014-08-31 08:47:00,
2014-08-31 03:52:00,57.0,54.1,29.92,SSW,202,0.0,0.0,90,0.00,,,0.00,WUHU21623XXSP,2014-08-31 08:52:00,
2014-08-31 03:57:00,57.0,54.1,29.92,SSW,202,0.0,0.0,90,0.00,,,0.00,WUHU21623XXSP,2014-08-31 08:57:00,
2014-08-31 04:02:00,57.0,54.1,29.92,SSW,202,0.0,0.0,90,0.00,,,0.00,WUHU21623XXSP,2014-08-31 09:02:00,
2014-08-31 04:07:00,57.0,54.1,29.92,SSW,202,0.0,0.0,90,0.00,,,0.00,WUHU21623XXSP,2014-08-31 09:07:00,
2014-08-31 04:12:00,57.0,54.1,29.91,SSW,202,0.0,0.0,90,0.00,,,0.00,WUHU21623XXSP,2014-08-31 09:12:00,
2014-08-31 04:17:00,57.0,54.1,29.91,SW,225,0.0,0.0,90,0.00,,,0.00,WUHU21623XXSP,2014-08-31 09:17:00,
2014-08-31 04:22:00,57.0,54.1,29.91,SW,225,0.0,0.0,90,0.00,,,0.00,WUHU21623XXSP,2014-08-31 09:22:00,
2014-08-31 04:27:00,57.0,54.1,29.91,SW,225,0.0,0.0,90,0.00,,,0.00,WUHU21623XXSP,2014-08-31 09:27:00,
2014-08-31 04:32:00,57.0,54.1,29.91,SSW,202,0.0,0.0,90,0.00,,,0.00,WUHU21623XXSP,2014-08-31 09:32:00,
2014-08-31 04:37:00,57.0,54.1,29.90,SSW,202,0.0,0.0,90,0.00,,,0.00,WUHU21623XXSP,2014-08-31 09:37:00,
2014-08-31 04:42:00,57.0,54.1,29.90,SSW,202,0.0,0.0,90,0.00,,,0.00,WUHU21623XXSP,2014-08-31 09:42:00,
2014-08-31 04:47:00,57.0,54.1,29.90,SSW,202,0.0,0.0,90,0.00,,,0.00,WUHU21623XXSP,2014-08-31 09:47:00,
2014-08-31 04:52:00,57.0,54.1,29.89,SSW,202,0.0,0.0,90,0.00,,,0.00,WUHU21623XXSP,2014-08-31 09:52:00,
2014-08-31 04:57:00,57.0,54.1,29.89,SSW,202,0.0,0.0,90,0.00,,,0.00,WUHU21623XXSP,2014-08-31 09:57:00,
2014-08-31 05:02:00,56.8,54.0,29.89,SSW,202,0.0,0.0,90,0.00,,,0.00,WUHU21623XXSP,2014-08-31 10:02:00,
2014-08-31 05:07:00,56.8,54.0,29.89,SSE,157,2.5,2.5,90,0.00,,,0.00,WUHU21623XXSP,2014-08-31 10:07:00,
2014-08-31 05:12:00,56.8,53.6,29.89,SSE,157,0.0,2.5,89,0.00,,,0.00,WUHU21623XXSP,2014-08-31 10:12:00,
2014-08-31 05:17:00,56.7,53.5,29.89,SSE,157,0.0,0.0,89,0.00,,,0.00,WUHU21623XXSP,2014-08-31 10:17:00,
2014-08-31 05:22:00,56.8,53.6,29.88,South,180,0.0,0.0,89,0.00,,,0.00,WUHU21623XXSP,2014-08-31 10:22:00,
2014-08-31 05:27:00,56.5,53.6,29.88,South,180,0.0,0.0,90,0.00,,,0.00,WUHU21623XXSP,2014-08-31 10:27:00,
2014-08-31 05:32:00,56.5,53.6,29.88,SSE,157,0.0,1.3,90,0.00,,,0.00,WUHU21623XXSP,2014-08-31 10:32:00,
2014-08-31 05:37:00,56.5,53.6,29.88,SSE,157,0.0,1.3,90,0.00,,,0.00,WUHU21623XXSP,2014-08-31 10:37:00,
2014-08-31 05:42:00,56.5,53.6,29.88,NE,45,0.0,0.0,90,0.00,,,0.00,WUHU21623XXSP,2014-08-31 10:42:00,
2014-08-31 05:47:00,56.5,53.6,29.88,SSE,157,0.1,0.7,90,0.00,,,0.00,WUHU21623XXSP,2014-08-31 10:47:00,
2014-08-31 05:52:00,56.3,53.4,29.88,SSE,157,0.0,0.7,90,0.00,,,0.00,WUHU21623XXSP,2014-08-31 10:52:00,
2014-08-31 05:57:00,56.1,53.2,29.88,South,180,0.1,1.1,90,0.00,,,0.00,WUHU21623XXSP,2014-08-31 10:57:00,
2014-08-31 06:02:00,55.9,53.1,29.88,NW,315,0.0,1.1,90,0.00,,,0.00,WUHU21623XXSP,2014-08-31 11:02:00,
2014-08-31 06:07:00,55.8,52.9,29.88,NW,315,0.0,0.0,90,0.00,,,0.00,WUHU21623XXSP,2014-08-31 11:07:00,